Orbital Elements at Epoch 2459000.5 (2020-May-31.0) TDB
Reference: JPL 12 (heliocentric ecliptic J2000)
Element | Value | Uncertainty (1-sigma) | Units |
e | .2520167427859024 | 4.4931e-08 | |
a | 2.37734298052354 | 2.3125e-08 | au |
q | 1.778212746087069 | 1.0055e-07 | au |
i | 9.07583597777325 | 8.0669e-06 | deg |
node | 155.1306204960665 | 3.0982e-05 | deg |
peri | 95.31755968254939 | 4.2054e-05 | deg |
M | 151.5294493503839 | 2.9213e-05 | deg |
tp | 2458436.952231607720 (2018-Nov-14.45223161) | 0.00010175 | TDB |
period | 1338.863154924458 3.67 | 1.9535e-05 5.348e-08 | d yr |
n | .26888483612077 | 3.9233e-09 | deg/d |
Q | 2.976473214960012 | 2.8953e-08 | au |
|
| | Orbit Determination Parameters
Additional Information
|